Tracking 25612 objects as of 19-May-2022
HD Live streaming from Space Station
objects crossing your sky now

SL-14 DEB

Track SL-14 DEB now!
10-day predictions


NORAD ID: 45277
Int'l Code: 1991-056P
Perigee: 1,057.2 km
Apogee: 1,306.1 km
Inclination: 82.6 °
Period: 108.9 minutes
Semi major axis: 7552 km
RCS: Unknown
Launch date: August 15, 1991
Source: Commonwealth of Independent States (former USSR) (CIS)
Launch site: PLESETSK MISSILE AND SPACE COMPLEX (PKMTR)

Note: This is SATELLITE DEBRIS
aabbcc
Your satellite tracking list
Your tracking list is empty




NASA's NSSDC Master Catalog

Two Line Element Set (TLE):
1 45277U 91056P   22138.60723104  .00005847  00000-0  12974-1 0  9993
2 45277  82.5580 108.7002 0164758  67.9842 293.8695 13.22668809108792
Source of the keplerian elements: AFSPC